STARLINK-6120 (56131 NORAD) Tracking and Keplerian Element Data

This shows tracking and keplerian element data for the satellite.

Feedback or suggestion? Click here.




ElementValue
Catalog56131
NameSTARLINK-6120
Epoch Orbit656
Epoch Day127.25001157
Epoch Year2023
RAAN33.686
Inclination43.0013
Eccentricity0.0001428
Argument of Perigee262.1748
Mean Anonmoly359.7187
Mean Motion15.48878632
Decay Rate0.00071086
L11 56131U 23046AR 23127.25001157 .00071086 00000+0 12812-2 0 9994
L22 56131 43.0013 33.6860 0001428 262.1748 359.7187 15.48878632 6569



Live tracking and technical data element details for STARLINK-6120 (NORAD 56131). STARLINK-6120 can be tracked NOW for your location showing map with azimuth and elevation plus other details from your city location.







IsCatalogInMostPopularTable: catalog: 56131, numindb: 5
Update: records affected: 1



GetName: 56131 STARLINK-6120

Hit Count: updated at: Mon, 05 Jun 2023 00:55:52 GMT